DW7229 Weather Reports


time (UTC)temp
F
wind
direction
speed
knots
gust
knots
rain 1hr
in
rain 24hr
in
rain mn
in
humidity
%
barometer
mb
20260508012023 50 0.0 0.0 0.00 0.00 0.00 46 1006.8
20260508011026 51 0.0 0.0 0.00 0.00 0.00 44 1006.8
20260508010030 52 0.0 0.0 0.00 0.00 0.00 43 1006.5
20260508005015 53 0.0 0.0 0.00 0.00 0.00 41 1006.4
20260508004018 54 225 0.0 0.9 0.00 0.00 0.00 36 1006.3
20260508003022 54 283 0.9 2.6 0.00 0.00 0.00 36 1006.3
20260508002019 54 315 0.0 1.7 0.00 0.00 0.00 35 1006.3
20260508001017 55 0.0 0.0 0.00 0.00 0.00 34 1006.2
20260508000032 55 272 0.0 2.6 0.00 0.00 0.00 34 1005.9
20260507235017 56 0.0 0.9 0.00 0.00 0.00 32 1006.1
20260507234020 57 2 0.9 4.3 0.00 0.00 0.00 31 1006.0
20260507233023 58 0.0 0.0 0.00 0.00 0.00 32 1005.8
20260507232027 58 116 0.9 6.1 0.00 0.00 0.00 30 1005.6
20260507231030 59 241 0.9 3.5 0.00 0.00 0.00 29 1005.6
20260507230015 60 228 0.9 4.3 0.00 0.00 0.00 28 1005.6
20260507225018 61 308 1.7 5.2 0.00 0.00 0.00 26 1005.5
20260507224022 63 212 0.9 4.3 0.00 0.00 0.00 26 1005.3
20260507223025 62 247 1.7 5.2 0.00 0.00 0.00 26 1005.1
20260507222028 63 286 1.7 5.2 0.00 0.00 0.00 26 1005.1
20260507221032 63 321 0.9 4.3 0.00 0.00 0.00 26 1005.1
20260507220017 63 169 0.9 2.6 0.00 0.00 0.00 25 1005.0
20260507215020 65 205 3.5 7.8 0.00 0.00 0.00 25 1004.9
20260507214044 65 207 2.6 7.8 0.00 0.00 0.00 24 1004.8
20260507213026 64 336 1.7 7.0 0.00 0.00 0.00 26 1004.8
20260507212030 66 321 1.7 5.2 0.00 0.00 0.00 25 1004.8
20260507211015 65 237 0.9 6.1 0.00 0.00 0.00 25 1004.9
20260507210018 65 336 1.7 4.3 0.00 0.00 0.00 25 1004.8
20260507205022 65 241 2.6 5.2 0.00 0.00 0.00 25 1004.7
20260507204019 66 300 5.2 10.4 0.00 0.00 0.00 25 1004.7
20260507203016 65 341 1.7 4.3 0.00 0.00 0.00 25 1004.6
20260507202051 65 237 2.6 9.6 0.00 0.00 0.00 24 1004.8
20260507201017 66 254 4.3 8.7 0.00 0.00 0.00 24 1004.7
20260507200020 66 250 3.5 8.7 0.00 0.00 0.00 25 1004.9
20260507195023 65 239 4.3 7.8 0.00 0.00 0.00 26 1005.0
20260507194046 65 266 4.3 7.8 0.00 0.00 0.00 25 1005.1
20260507193030 66 300 3.5 6.1 0.00 0.00 0.00 26 1005.1
20260507192035 65 347 3.5 6.1 0.00 0.00 0.00 25 1005.2
20260507191018 65 277 3.5 6.1 0.00 0.00 0.00 28 1005.3
20260507190021 62 20 0.9 3.5 0.00 0.00 0.00 30 1005.5
20260507185025 64 275 4.3 6.1 0.00 0.00 0.00 29 1005.5
20260507184028 65 4 3.5 6.1 0.00 0.00 0.00 29 1005.6
20260507183031 65 214 4.3 8.7 0.00 0.00 0.00 28 1005.6
20260507182036 65 270 2.6 7.0 0.00 0.00 0.00 30 1005.7
20260507181020 64 306 2.6 7.0 0.00 0.00 0.00 29 1005.8
20260507180043 65 312 3.5 6.1 0.00 0.00 0.00 30 1005.5
20260507175026 64 300 4.3 8.7 0.00 0.00 0.00 30 1005.6
20260507174029 64 233 3.5 7.8 0.00 0.00 0.00 31 1005.6
20260507173014 64 221 4.3 7.8 0.00 0.00 0.00 30 1005.6
20260507172018 64 200 5.2 7.8 0.00 0.00 0.00 31 1005.7
20260507171021 64 199 1.7 5.2 0.00 0.00 0.00 31 1005.9
20260507170018 64 29 2.6 5.2 0.00 0.00 0.00 30 1006.2
20260507165036 63 265 3.5 7.0 0.00 0.00 0.00 32 1006.1
20260507164031 62 320 3.5 9.6 0.00 0.00 0.00 33 1006.1
20260507163016 63 219 3.5 7.0 0.00 0.00 0.00 34 1006.1
20260507162020 63 10 0.9 4.3 0.00 0.00 0.00 37 1006.3
20260507161023 61 239 3.5 7.0 0.00 0.00 0.00 40 1006.5
20260507160026 61 268 3.5 6.1 0.00 0.00 0.00 45 1006.5
20260507155029 60 257 3.5 7.0 0.00 0.00 0.00 46 1006.6
20260507154032 58 320 0.9 3.5 0.00 0.00 0.00 50 1006.6
20260507153038 61 315 0.0 1.7 0.00 0.00 0.00 47 1006.7
20260507152021 59 248 1.7 5.2 0.00 0.00 0.00 49 1006.9
20260507151024 58 257 3.5 7.0 0.00 0.00 0.00 48 1006.9
20260507150027 58 247 4.3 7.0 0.00 0.00 0.00 49 1007.0
20260507145031 59 221 0.9 3.5 0.00 0.00 0.00 49 1007.0
20260507144016 60 220 1.7 5.2 0.00 0.00 0.00 46 1006.9
20260507143059 60 325 1.7 7.0 0.00 0.00 0.00 47 1006.9
20260507142023 58 21 2.6 7.0 0.00 0.00 0.00 46 1006.9
20260507141026 58 10 0.9 3.5 0.00 0.00 0.00 48 1006.9
20260507140029 58 334 3.5 6.1 0.00 0.00 0.00 49 1006.8
20260507135026 57 1 1.7 4.3 0.00 0.00 0.00 48 1006.9
20260507134018 56 27 0.9 3.5 0.00 0.00 0.00 52 1007.0
20260507133021 55 260 1.7 4.3 0.00 0.00 0.00 53 1007.1
20260507132018 55 206 0.9 3.5 0.00 0.00 0.00 55 1007.3
20260507131035 54 237 0.9 2.6 0.00 0.00 0.00 56 1007.3
20260507130030 53 230 0.9 3.5 0.00 0.00 0.00 58 1007.4
20260507125016 53 180 1.7 5.2 0.00 0.00 0.00 57 1007.4
20260507124039 52 180 0.9 3.5 0.00 0.00 0.00 60 1007.5
20260507123042 51 255 0.9 4.3 0.00 0.00 0.00 64 1007.6
20260507122025 51 355 0.9 4.3 0.00 0.00 0.00 66 1007.6
20260507121109 50 205 0.9 3.5 0.00 0.00 0.00 66 1007.6
20260507120032 51 310 0.9 5.2 0.00 0.00 0.00 66 1007.5
20260507115018 51 228 0.9 4.3 0.00 0.00 0.00 66 1007.3
20260507114021 50 0.0 1.7 0.00 0.00 0.00 69 1007.2
20260507113044 49 0.0 0.0 0.00 0.00 0.00 69 1007.1
20260507112027 49 0.0 0.0 0.00 0.00 0.00 69 1007.2
20260507111030 49 315 0.0 1.7 0.00 0.00 0.00 69 1007.4
20260507110016 48 0.0 0.9 0.00 0.00 0.00 70 1007.1
20260507105019 48 0.0 0.0 0.00 0.00 0.00 70 1006.9
20260507104022 48 293 0.9 3.5 0.00 0.00 0.00 70 1006.8
20260507103025 48 0.0 0.0 0.00 0.00 0.00 71 1006.8
20260507102029 48 0.0 0.0 0.00 0.00 0.00 72 1007.0
20260507101046 48 0.0 0.0 0.00 0.00 0.00 72 1006.7
20260507100017 48 279 0.9 4.3 0.00 0.00 0.00 73 1007.0
20260507095020 48 293 0.9 3.5 0.00 0.00 0.00 74 1006.9
20260507094038 48 0.0 0.0 0.00 0.00 0.00 75 1006.8
20260507093015 48 0.0 0.0 0.00 0.00 0.00 76 1006.7
20260507092030 48 0.0 0.0 0.00 0.00 0.00 76 1007.1
20260507091016 48 0.0 0.0 0.00 0.00 0.00 76 1006.6
20260507090019 48 0.0 0.0 0.00 0.00 0.00 76 1006.7
20260507085022 48 0.0 0.0 0.00 0.00 0.00 76 1006.7
20260507084026 48 270 0.0 2.6 0.00 0.00 0.00 76 1006.6
20260507083029 48 0.0 0.0 0.00 0.00 0.00 76 1006.4
20260507082032 49 304 0.9 2.6 0.00 0.00 0.00 75 1006.6
20260507081017 49 0.0 0.0 0.00 0.00 0.00 74 1006.4
20260507080021 50 248 0.0 1.7 0.00 0.00 0.00 73 1006.7
20260507075024 50 273 1.7 4.3 0.00 0.00 0.00 73 1006.6
20260507074047 50 0.0 1.7 0.00 0.00 0.00 74 1006.4
20260507073050 50 0.0 0.0 0.00 0.00 0.00 74 1006.2
20260507072016 50 220 0.9 5.2 0.00 0.00 0.00 75 1006.1
20260507071019 51 333 0.9 3.5 0.00 0.00 0.00 75 1006.2
20260507070022 51 0.0 0.9 0.00 0.00 0.00 75 1006.0
20260507065026 51 0 0.9 4.3 0.00 0.00 0.00 75 1006.0
20260507064029 51 296 0.9 4.3 0.00 0.00 0.00 74 1005.9
20260507063026 51 225 0.9 3.5 0.00 0.00 0.00 74 1005.6
20260507062017 51 0.0 0.0 0.00 0.00 0.00 75 1005.9
20260507061021 51 315 0.0 0.9 0.00 0.00 0.00 75 1006.0
20260507060018 51 0.0 1.7 0.00 0.00 0.00 77 1006.2
20260507055015 51 266 1.7 6.1 0.00 0.00 0.00 79 1006.4
20260507054051 52 248 0.0 2.6 0.00 0.00 0.00 80 1006.3
20260507053016 52 0.0 0.0 0.00 0.00 0.00 80 1006.1
20260507052019 52 203 0.0 1.7 0.00 0.00 0.00 80 1006.5
20260507051043 52 158 0.0 1.7 0.00 0.00 0.00 80 1006.1
20260507050046 52 45 0.9 3.5 0.00 0.00 0.00 80 1006.1
20260507045029 52 0.0 0.0 0.00 0.00 0.00 80 1006.0
20260507044032 53 270 0.0 1.7 0.00 0.00 0.00 80 1006.0
20260507043038 53 315 0.0 1.7 0.00 0.00 0.00 80 1006.1
20260507042041 54 338 0.0 0.9 0.00 0.00 0.00 81 1006.4
20260507041024 54 293 0.0 0.9 0.00 0.00 0.00 81 1006.2
20260507040048 55 0.0 1.7 0.00 0.00 0.00 81 1005.9
20260507035031 57 0.0 0.0 0.00 0.00 0.00 82 1005.5
20260507034016 57 0.0 1.7 0.00 0.00 0.00 83 1005.3
20260507033019 58 323 1.7 6.1 0.00 0.00 0.00 83 1005.2
20260507032022 58 274 2.6 7.8 0.00 0.00 0.00 83 1005.2
20260507031026 59 252 3.5 7.8 0.00 0.00 0.00 83 1005.0
20260507030029 59 225 0.0 1.7 0.00 0.00 0.00 82 1004.8
20260507025026 59 270 0.0 1.7 0.00 0.00 0.00 82 1004.8
20260507024018 59 264 0.9 4.3 0.00 0.00 0.00 82 1004.8
20260507023041 59 239 0.9 2.6 0.00 0.00 0.00 82 1004.7
20260507022018 59 0.0 0.0 0.00 0.00 0.00 82 1004.7
20260507021116 59 0.0 0.0 0.00 0.00 0.00 82 1004.6
20260507020031 59 180 0.0 3.5 0.00 0.00 0.00 82 1004.8
20260507015016 59 225 0.0 3.5 0.00 0.00 0.00 82 1004.7
20260507014019 59 0.0 0.0 0.00 0.00 0.00 82 1004.8
20260507013103 59 113 0.0 0.9 0.00 0.00 0.00 82 1005.0